Tracking 30298 objects as of 27-Apr-2025
HD Live streaming from Space Station
objects crossing your sky now

FENGYUN 1C DEB

Track FENGYUN 1C DEB now!
10-day predictions


NORAD ID: 31820
Int'l Code: 1999-025CHJ
Perigee: 503.5 km
Apogee: 739.6 km
Inclination: 98.9 °
Period: 97.0 minutes
Semi major axis: 6992 km
RCS: 0.0132 m2 (small)
Launch date: May 10, 1999
Source: People's Republic of China (PRC)
Launch site: Taiyaun Space Center, China (TSC)

Note: This is SATELLITE DEBRIS
Your satellite tracking list
Your tracking list is empty




NASA's NSSDC Master Catalog

Two Line Element Set (TLE):
1 31820U 99025CHJ 25112.84737270  .00017552  00000-0  16067-2 0  9990
2 31820  98.9405 253.7202 0168864  38.5486 322.7643 14.84740265947782
Source of the keplerian elements: AFSPC